UAL1732 KORD-KCVG

Flight info

Callsign UAL1732
Flight time 0h 46m
Altitude 31000
Route EARND ELANR CEGRM8
Aircraft B38M/M-SDE1FGHILORVWXY/HB1

Departure

Time 2026-05-05 22:45
Airport Chicago O'Hare International Airport (KORD)

Arrival

Time 2026-05-05 23:32
Airport Cincinnati Northern Kentucky International Airport (KCVG)
Time Latitude Longitude Altitude Speed Heading
2026-05-05 22:15 41.98194 -87.90572 659 ft 0 kts 181°
2026-05-05 22:31 41.98203 -87.90572 658 ft 2 kts 181°
2026-05-05 22:31 41.98219 -87.90572 658 ft 2 kts 181°
2026-05-05 22:32 41.98235 -87.90572 659 ft 2 kts 181°
2026-05-05 22:32 41.98248 -87.90571 658 ft 0 kts 181°
2026-05-05 22:32 41.98254 -87.90571 658 ft 1 kts 146°
2026-05-05 22:32 41.98258 -87.90576 658 ft 0 kts 104°
2026-05-05 22:38 41.98258 -87.90574 658 ft 1 kts 102°
2026-05-05 22:38 41.98261 -87.90521 659 ft 10 kts 85°
2026-05-05 22:38 41.98293 -87.90430 661 ft 8 kts 68°
2026-05-05 22:38 41.98293 -87.90321 662 ft 16 kts 91°
2026-05-05 22:39 41.98291 -87.90129 663 ft 25 kts 90°
2026-05-05 22:39 41.98291 -87.89864 668 ft 31 kts 90°
2026-05-05 22:39 41.98288 -87.89614 665 ft 22 kts 109°
2026-05-05 22:39 41.98187 -87.89438 665 ft 26 kts 136°
2026-05-05 22:40 41.98077 -87.89295 661 ft 15 kts 143°
2026-05-05 22:40 41.97988 -87.89291 660 ft 15 kts 217°
2026-05-05 22:40 41.97905 -87.89417 663 ft 13 kts 210°
2026-05-05 22:40 41.97820 -87.89433 660 ft 17 kts 179°
2026-05-05 22:41 41.97675 -87.89431 658 ft 23 kts 180°
2026-05-05 22:41 41.97501 -87.89433 659 ft 27 kts 179°
2026-05-05 22:41 41.97310 -87.89433 662 ft 22 kts 181°
2026-05-05 22:41 41.97226 -87.89433 665 ft 11 kts 169°
2026-05-05 22:42 41.97199 -87.89361 667 ft 11 kts 95°
2026-05-05 22:42 41.97195 -87.89227 663 ft 18 kts 89°
2026-05-05 22:42 41.97196 -87.89026 660 ft 25 kts 90°
2026-05-05 22:42 41.97199 -87.88778 660 ft 29 kts 91°
2026-05-05 22:43 41.97204 -87.88490 660 ft 32 kts 94°
2026-05-05 22:43 41.97197 -87.88183 661 ft 35 kts 88°
2026-05-05 22:43 41.97184 -87.88023 660 ft 0 kts 159°
2026-05-05 22:43 41.97173 -87.88023 661 ft 3 kts 178°
2026-05-05 22:44 41.97128 -87.88026 663 ft 11 kts 183°
2026-05-05 22:44 41.97025 -87.88030 665 ft 19 kts 180°
2026-05-05 22:44 41.96949 -87.88044 667 ft 0 kts 202°
2026-05-05 22:44 41.96850 -87.88151 663 ft 52 kts 223°
2026-05-05 22:45 41.96383 -87.88707 672 ft 123 kts 221°
2026-05-05 22:45 41.95627 -87.89561 983 ft 151 kts 218°
2026-05-05 22:45 41.94787 -87.90331 1803 ft 147 kts 213°
2026-05-05 22:45 41.93787 -87.90669 2447 ft 146 kts 181°
2026-05-05 22:46 41.92726 -87.90375 2537 ft 170 kts 165°
2026-05-05 22:46 41.91724 -87.89667 3128 ft 153 kts 142°
2026-05-05 22:46 41.90948 -87.88709 3446 ft 158 kts 139°
2026-05-05 22:46 41.90102 -87.87710 3802 ft 155 kts 141°
2026-05-05 22:47 41.89274 -87.86780 4104 ft 162 kts 141°
2026-05-05 22:47 41.88396 -87.85796 4443 ft 160 kts 141°
2026-05-05 22:47 41.87549 -87.84840 4735 ft 171 kts 141°
2026-05-05 22:47 41.86496 -87.83632 4555 ft 215 kts 140°
2026-05-05 22:48 41.85310 -87.82213 4629 ft 249 kts 137°
2026-05-05 22:48 41.83898 -87.80612 4798 ft 275 kts 147°
2026-05-05 22:48 41.82194 -87.79376 5379 ft 281 kts 159°
2026-05-05 22:48 41.80345 -87.78456 6064 ft 286 kts 162°
2026-05-05 22:49 41.78497 -87.77519 6752 ft 290 kts 160°
2026-05-05 22:49 41.76638 -87.76446 7491 ft 292 kts 160°
2026-05-05 22:49 41.74776 -87.75353 8234 ft 293 kts 161°
2026-05-05 22:49 41.72890 -87.74287 8984 ft 295 kts 162°
2026-05-05 22:50 41.71000 -87.73232 9769 ft 296 kts 163°
2026-05-05 22:50 41.69086 -87.72155 10386 ft 302 kts 163°
2026-05-05 22:50 41.67109 -87.71041 10802 ft 315 kts 163°
2026-05-05 22:50 41.65039 -87.69875 11165 ft 329 kts 163°
2026-05-05 22:51 41.62905 -87.68668 11697 ft 337 kts 163°
2026-05-05 22:51 41.60722 -87.67436 12276 ft 344 kts 163°
2026-05-05 22:51 41.58501 -87.66186 12876 ft 349 kts 163°
2026-05-05 22:51 41.56279 -87.64937 13492 ft 353 kts 164°
2026-05-05 22:52 41.53997 -87.63655 14052 ft 358 kts 164°
2026-05-05 22:52 41.51695 -87.62362 14611 ft 361 kts 163°
2026-05-05 22:52 41.49372 -87.61057 15223 ft 363 kts 163°
2026-05-05 22:52 41.47038 -87.59748 15845 ft 364 kts 164°
2026-05-05 22:53 41.44696 -87.58437 16477 ft 366 kts 164°
2026-05-05 22:53 41.42325 -87.57267 17108 ft 360 kts 173°
2026-05-05 22:53 41.39873 -87.56744 17748 ft 356 kts 179°
2026-05-05 22:53 41.37416 -87.56327 18347 ft 357 kts 179°
2026-05-05 22:54 41.34978 -87.55914 18858 ft 359 kts 179°
2026-05-05 22:54 41.32491 -87.55479 19358 ft 362 kts 179°
2026-05-05 22:54 41.29988 -87.55037 19811 ft 364 kts 180°
2026-05-05 22:54 41.27463 -87.54599 20279 ft 367 kts 180°
2026-05-05 22:55 41.24918 -87.54160 20735 ft 370 kts 180°
2026-05-05 22:55 41.22350 -87.53711 21187 ft 374 kts 179°
2026-05-05 22:55 41.19785 -87.52843 21624 ft 389 kts 167°
2026-05-05 22:55 41.17305 -87.51274 22056 ft 400 kts 160°
2026-05-05 22:56 41.14850 -87.49482 22475 ft 404 kts 160°
2026-05-05 22:56 41.12415 -87.47703 22880 ft 407 kts 160°
2026-05-05 22:56 41.09914 -87.45893 23255 ft 411 kts 160°
2026-05-05 22:56 41.07397 -87.44079 23639 ft 414 kts 160°
2026-05-05 22:57 41.04859 -87.42243 23984 ft 418 kts 160°
2026-05-05 22:57 41.02296 -87.40386 24342 ft 421 kts 160°
2026-05-05 22:57 40.99717 -87.38523 24687 ft 424 kts 160°
2026-05-05 22:57 40.97120 -87.36651 25032 ft 426 kts 160°
2026-05-05 22:58 40.94507 -87.34769 25373 ft 429 kts 160°
2026-05-05 22:58 40.91877 -87.32874 25702 ft 432 kts 160°
2026-05-05 22:58 40.89261 -87.30993 26008 ft 435 kts 160°
2026-05-05 22:58 40.86591 -87.29074 26296 ft 438 kts 160°
2026-05-05 22:59 40.83910 -87.27148 26636 ft 440 kts 160°
2026-05-05 22:59 40.81212 -87.25211 26970 ft 443 kts 160°
2026-05-05 22:59 40.78494 -87.23264 27290 ft 445 kts 160°
2026-05-05 22:59 40.75763 -87.21309 27609 ft 448 kts 160°
2026-05-05 23:00 40.70261 -87.17374 28231 ft 453 kts 160°
2026-05-05 23:00 40.67482 -87.15389 28533 ft 455 kts 160°
2026-05-05 23:00 40.64730 -87.13426 28896 ft 456 kts 160°
2026-05-05 23:01 40.61938 -87.11434 29305 ft 456 kts 160°
2026-05-05 23:01 40.59153 -87.09451 29684 ft 456 kts 161°
2026-05-05 23:01 40.56360 -87.07465 30050 ft 456 kts 161°
2026-05-05 23:01 40.53539 -87.05620 30355 ft 452 kts 164°
2026-05-05 23:02 40.50696 -87.03832 30640 ft 453 kts 165°
2026-05-05 23:02 40.47851 -87.02033 30870 ft 454 kts 165°
2026-05-05 23:02 40.42169 -86.98443 30864 ft 452 kts 165°
2026-05-05 23:03 40.36494 -86.94880 30833 ft 456 kts 164°
2026-05-05 23:03 40.33652 -86.93087 30614 ft 452 kts 164°
2026-05-05 23:03 40.30833 -86.91311 30310 ft 446 kts 164°
2026-05-05 23:04 40.28050 -86.89567 29978 ft 441 kts 163°
2026-05-05 23:04 40.25301 -86.87849 29581 ft 436 kts 163°
2026-05-05 23:04 40.22580 -86.86145 29155 ft 431 kts 163°
2026-05-05 23:04 40.19888 -86.84459 28695 ft 428 kts 163°
2026-05-05 23:05 40.17212 -86.82787 28218 ft 426 kts 163°
2026-05-05 23:05 40.14547 -86.81125 27777 ft 423 kts 163°
2026-05-05 23:05 40.11939 -86.79497 27360 ft 420 kts 163°
2026-05-05 23:05 40.09309 -86.77856 26949 ft 417 kts 163°
2026-05-05 23:06 40.06702 -86.76232 26542 ft 414 kts 163°
2026-05-05 23:06 40.04116 -86.74623 26146 ft 411 kts 163°
2026-05-05 23:06 40.01553 -86.72992 25766 ft 411 kts 156°
2026-05-05 23:06 39.99350 -86.70537 25408 ft 426 kts 135°
2026-05-05 23:07 39.97581 -86.67432 25002 ft 428 kts 128°
2026-05-05 23:07 39.95991 -86.64150 24620 ft 427 kts 126°
2026-05-05 23:07 39.94444 -86.60926 24256 ft 423 kts 129°
2026-05-05 23:07 39.92765 -86.57807 23904 ft 418 kts 131°
2026-05-05 23:08 39.91059 -86.54758 23548 ft 415 kts 131°
2026-05-05 23:08 39.89421 -86.51680 23165 ft 413 kts 129°
2026-05-05 23:08 39.87825 -86.48589 22744 ft 410 kts 130°
2026-05-05 23:08 39.86221 -86.45551 22338 ft 406 kts 131°
2026-05-05 23:09 39.84598 -86.42543 21917 ft 404 kts 131°
2026-05-05 23:09 39.82995 -86.39555 21517 ft 402 kts 131°
2026-05-05 23:09 39.81444 -86.36538 21103 ft 403 kts 125°
2026-05-05 23:09 39.80241 -86.33224 20719 ft 405 kts 119°
2026-05-05 23:10 39.79112 -86.29886 20321 ft 403 kts 119°
2026-05-05 23:10 39.77987 -86.26599 19940 ft 401 kts 120°
2026-05-05 23:10 39.76841 -86.23305 19536 ft 400 kts 120°
2026-05-05 23:10 39.75700 -86.20021 19162 ft 398 kts 120°
2026-05-05 23:11 39.74567 -86.16740 18793 ft 396 kts 120°
2026-05-05 23:11 39.73445 -86.13486 18456 ft 393 kts 120°
2026-05-05 23:11 39.72324 -86.10257 18133 ft 390 kts 120°
2026-05-05 23:11 39.71211 -86.07059 17763 ft 388 kts 120°
2026-05-05 23:12 39.70103 -86.03872 17380 ft 386 kts 120°
2026-05-05 23:12 39.69003 -86.00707 17004 ft 384 kts 120°
2026-05-05 23:12 39.67906 -85.97556 16633 ft 382 kts 120°
2026-05-05 23:12 39.66816 -85.94433 16270 ft 380 kts 120°
2026-05-05 23:13 39.65744 -85.91360 15712 ft 377 kts 121°
2026-05-05 23:13 39.64671 -85.88289 15329 ft 367 kts 121°
2026-05-05 23:13 39.63628 -85.85297 15100 ft 361 kts 121°
2026-05-05 23:13 39.62594 -85.82353 14867 ft 358 kts 121°
2026-05-05 23:14 39.61565 -85.79425 14629 ft 356 kts 121°
2026-05-05 23:14 39.60608 -85.76464 14381 ft 356 kts 118°
2026-05-05 23:14 39.59683 -85.73489 14132 ft 355 kts 119°
2026-05-05 23:14 39.58749 -85.70538 13883 ft 353 kts 119°
2026-05-05 23:15 39.57820 -85.67590 13635 ft 352 kts 119°
2026-05-05 23:15 39.56904 -85.64659 13366 ft 350 kts 119°
2026-05-05 23:15 39.56004 -85.61785 13106 ft 347 kts 119°
2026-05-05 23:15 39.55097 -85.58902 12862 ft 344 kts 119°
2026-05-05 23:16 39.54194 -85.56039 12619 ft 341 kts 119°
2026-05-05 23:16 39.53301 -85.53204 12373 ft 339 kts 118°
2026-05-05 23:16 39.52414 -85.50393 12134 ft 336 kts 118°
2026-05-05 23:16 39.51402 -85.47725 11909 ft 322 kts 133°
2026-05-05 23:17 39.50103 -85.45367 11670 ft 321 kts 133°
2026-05-05 23:17 39.48805 -85.43034 11412 ft 318 kts 133°
2026-05-05 23:17 39.47522 -85.40722 11203 ft 320 kts 133°
2026-05-05 23:17 39.46246 -85.38393 10967 ft 315 kts 132°
2026-05-05 23:18 39.44979 -85.36088 10755 ft 315 kts 132°
2026-05-05 23:18 39.43714 -85.33801 10530 ft 311 kts 132°
2026-05-05 23:18 39.42466 -85.31544 10298 ft 303 kts 132°
2026-05-05 23:18 39.41260 -85.29361 10097 ft 295 kts 133°
2026-05-05 23:19 39.40155 -85.27124 9866 ft 299 kts 115°
2026-05-05 23:19 39.39544 -85.24549 9668 ft 301 kts 111°
2026-05-05 23:19 39.38977 -85.21958 9442 ft 297 kts 110°
2026-05-05 23:19 39.38411 -85.19393 9229 ft 297 kts 111°
2026-05-05 23:20 39.37842 -85.16864 9032 ft 295 kts 111°
2026-05-05 23:20 39.37271 -85.14323 8812 ft 294 kts 111°
2026-05-05 23:20 39.36702 -85.11788 8608 ft 293 kts 111°
2026-05-05 23:20 39.36138 -85.09271 8401 ft 292 kts 111°
2026-05-05 23:21 39.35574 -85.06758 8189 ft 290 kts 111°
2026-05-05 23:21 39.35010 -85.04254 7989 ft 291 kts 112°
2026-05-05 23:21 39.34445 -85.01741 7779 ft 293 kts 112°
2026-05-05 23:21 39.33884 -84.99242 7577 ft 287 kts 112°
2026-05-05 23:22 39.33322 -84.96767 7373 ft 286 kts 112°
2026-05-05 23:22 39.32777 -84.94342 7150 ft 276 kts 111°
2026-05-05 23:22 39.32243 -84.92013 6966 ft 264 kts 118°
2026-05-05 23:22 39.31491 -84.89916 6716 ft 254 kts 124°
2026-05-05 23:23 39.30718 -84.87907 6458 ft 246 kts 124°
2026-05-05 23:23 39.29989 -84.85980 6277 ft 232 kts 124°
2026-05-05 23:23 39.29334 -84.84207 6044 ft 208 kts 124°
2026-05-05 23:23 39.28726 -84.82580 5843 ft 197 kts 127°
2026-05-05 23:24 39.28128 -84.81013 5654 ft 192 kts 127°
2026-05-05 23:24 39.27543 -84.79468 5456 ft 191 kts 127°
2026-05-05 23:24 39.26968 -84.77935 5285 ft 188 kts 127°
2026-05-05 23:24 39.26396 -84.76423 5122 ft 187 kts 128°
2026-05-05 23:25 39.25844 -84.74951 4938 ft 176 kts 128°
2026-05-05 23:25 39.25327 -84.73574 4772 ft 168 kts 130°
2026-05-05 23:25 39.24821 -84.72245 4614 ft 166 kts 130°
2026-05-05 23:25 39.24324 -84.70934 4448 ft 163 kts 130°
2026-05-05 23:26 39.23820 -84.69609 4285 ft 163 kts 130°
2026-05-05 23:26 39.23321 -84.68311 4121 ft 159 kts 134°
2026-05-05 23:26 39.22608 -84.67368 3968 ft 141 kts 159°
2026-05-05 23:26 39.21756 -84.66880 3791 ft 129 kts 177°
2026-05-05 23:27 39.20885 -84.66808 3627 ft 128 kts 190°
2026-05-05 23:27 39.19986 -84.66817 3443 ft 125 kts 187°
2026-05-05 23:27 39.19147 -84.66817 3267 ft 120 kts 187°
2026-05-05 23:27 39.18315 -84.66820 3085 ft 120 kts 187°
2026-05-05 23:28 39.17483 -84.66825 2885 ft 121 kts 186°
2026-05-05 23:28 39.16634 -84.66828 2688 ft 123 kts 186°
2026-05-05 23:28 39.15771 -84.66830 2488 ft 125 kts 185°
2026-05-05 23:28 39.14907 -84.66829 2289 ft 125 kts 185°
2026-05-05 23:29 39.14029 -84.66834 2109 ft 124 kts 184°
2026-05-05 23:29 39.13166 -84.66838 1877 ft 128 kts 184°
2026-05-05 23:29 39.12280 -84.66843 1744 ft 129 kts 183°
2026-05-05 23:29 39.11346 -84.66836 1532 ft 136 kts 183°
2026-05-05 23:30 39.10413 -84.66847 1353 ft 136 kts 181°
2026-05-05 23:30 39.09471 -84.66850 1184 ft 133 kts 181°
2026-05-05 23:30 39.08564 -84.66857 1050 ft 126 kts 178°
2026-05-05 23:30 39.07667 -84.66825 1087 ft 132 kts 182°
2026-05-05 23:31 39.06729 -84.66891 1055 ft 145 kts 173°
2026-05-05 23:31 39.05716 -84.66815 932 ft 137 kts 174°
2026-05-05 23:31 39.04888 -84.66799 885 ft 100 kts 178°
2026-05-05 23:31 39.04339 -84.66700 881 ft 65 kts 166°
2026-05-05 23:32 39.03956 -84.66727 880 ft 48 kts 181°
2026-05-05 23:32 39.03755 -84.66733 881 ft 19 kts 178°
2026-05-05 23:32 39.03643 -84.66735 882 ft 10 kts 179°
2026-05-05 23:32 39.03635 -84.66735 882 ft 0 kts 179°
2026-05-05 23:33 39.03633 -84.66735 882 ft 0 kts 179°
2026-05-05 23:33 39.03628 -84.66735 882 ft 1 kts 179°
2026-05-05 23:33 39.03622 -84.66735 882 ft 1 kts 179°
2026-05-05 23:34 39.03614 -84.66734 882 ft 1 kts 179°
2026-05-05 23:34 39.03606 -84.66734 882 ft 0 kts 179°